Weather History for Bellaire, MI

Change the Weather History Date:

Tuesday, January 1, 2013

  Actual Average (KTVC) Record (KTVC)
Temperature  
Mean Temperature 21 °F 23 °F  
Max Temperature 23 °F 29 °F 55 °F (1903)
Min Temperature 19 °F 17 °F -7 °F (1982)
Degree Days  
Heating Degree Days 44 42  
Month to date heating degree days 42  
Since 1 July heating degree days 2850  
Moisture  
Dew Point 14 °F    
Average Humidity 73    
Maximum Humidity 87    
Minimum Humidity 64    
Precipitation  
Precipitation 0.00 in 0.09 in 0.68 in (1985)
Month to date precipitation 0.09  
Year to date precipitation 0.09  
Sea Level Pressure  
Sea Level Pressure 30.05 in    
Wind  
Wind Speed 2 mph (SW)    
Max Wind Speed 13 mph    
Max Gust Speed 21 mph    
Visibility 9 miles    
Events Snow    
T = Trace of Precipitation, MM = Missing Value Source: NWS Daily Summary

Daily Weather History Graph

Daily Weather History Graph

Search for Another Location

Airport:

Trip Planner

Search our weather history database for the weather conditions in past years. The results will help you decide how hot, cold, wet, or windy it might be!

Date:

Astronomy

Jan. 01, 2013 Rise Set
Actual Time 8:19 AM EST 5:10 PM EST
Civil Twilight 7:45 AM EST 5:43 PM EST
Nautical Twilight 7:08 AM EST 6:20 PM EST
Astronomical Twilight 6:32 AM EST 6:56 PM EST
Moon 9:53 PM EST (1/1) 10:19 AM EST (1/1)
Length of Visible Light 9h 58m
Length of Day
8h 51m
Waning Gibbous, 83% of the Moon is Illuminated
Jan 1
Waning Gibbous
Jan 4
Last Quarter
Jan 11
New
Jan 18
First Quarter
Jan 26
Full

Hourly Weather History & Observations

Time (EST) Temp. Windchill Dew Point Humidity Pressure Visibility Wind Dir Wind Speed Gust Speed Precip Events Conditions
12:14 AM 20.1 °F - 13.1 °F 74% 30.03 in 10.0 mi Calm Calm - N/A   Overcast
12:35 AM 20.3 °F - 12.4 °F 71% 30.03 in 10.0 mi Calm Calm - N/A   Overcast
12:54 AM 20.5 °F - 11.8 °F 69% 30.03 in 10.0 mi Calm Calm - N/A   Overcast
1:14 AM 20.8 °F - 11.3 °F 67% 30.03 in 10.0 mi Calm Calm - N/A   Overcast
1:35 AM 20.8 °F - 11.1 °F 66% 30.04 in 10.0 mi Calm Calm - N/A   Overcast
1:54 AM 20.8 °F - 10.9 °F 66% 30.04 in 10.0 mi Calm Calm - N/A   Overcast
2:14 AM 20.8 °F - 10.8 °F 65% 30.05 in 10.0 mi Calm Calm - N/A   Overcast
2:35 AM 20.8 °F - 10.6 °F 65% 30.05 in 10.0 mi Calm Calm - N/A   Overcast
2:54 AM 20.8 °F - 10.4 °F 64% 30.06 in 10.0 mi Calm Calm - N/A   Overcast
3:15 AM 20.8 °F - 10.4 °F 64% 30.06 in 10.0 mi Calm Calm - N/A   Overcast
3:35 AM 20.7 °F - 10.2 °F 64% 30.06 in 10.0 mi Calm Calm - N/A   Overcast
3:54 AM 20.8 °F - 10.2 °F 64% 30.06 in 10.0 mi Calm Calm - N/A   Overcast
4:15 AM 20.7 °F - 10.4 °F 65% 30.06 in 10.0 mi Calm Calm - N/A   Overcast
4:35 AM 20.3 °F 15.4 °F 10.8 °F 67% 30.06 in 10.0 mi North 3.5 mph - N/A   Overcast
5:15 AM 19.9 °F - 13.6 °F 77% 30.06 in 10.0 mi Calm Calm - N/A   Overcast
5:35 AM 19.9 °F - 13.3 °F 75% 30.06 in 10.0 mi Calm Calm - N/A   Overcast
5:54 AM 19.8 °F - 13.8 °F 78% 30.07 in 10.0 mi Calm Calm - N/A   Overcast
6:15 AM 20.1 °F - 12.7 °F 73% 30.07 in 10.0 mi Calm Calm - N/A   Overcast
6:34 AM 20.1 °F - 12.9 °F 74% 30.07 in 7.0 mi Calm Calm - N/A   Overcast
6:54 AM 19.9 °F - 13.1 °F 75% 30.07 in 5.0 mi Calm Calm - N/A   Overcast
7:15 AM 19.8 °F - 13.1 °F 75% 30.08 in 10.0 mi Calm Calm - N/A   Overcast
7:34 AM 19.8 °F - 13.6 °F 77% 30.08 in 10.0 mi Calm Calm - N/A   Overcast
7:55 AM 19.4 °F - 13.3 °F 77% 30.09 in 10.0 mi Calm Calm - N/A   Overcast
8:15 AM 19.0 °F - 14.0 °F 81% 30.09 in 10.0 mi Calm Calm - N/A   Overcast
8:34 AM 19.4 °F - 14.9 °F 83% 30.09 in 0.8 mi Calm Calm - N/A   Overcast
8:55 AM 19.4 °F - 14.9 °F 83% 30.09 in 3.0 mi Calm Calm - N/A   Overcast
9:15 AM 19.4 °F - 15.4 °F 85% 30.09 in 5.0 mi Calm Calm - N/A   Overcast
9:34 AM 19.4 °F - 15.8 °F 86% 30.10 in 4.0 mi Calm Calm - N/A   Overcast
9:55 AM 19.9 °F 14.9 °F 15.8 °F 84% 30.10 in 5.0 mi South 3.5 mph - N/A   Overcast
10:14 AM 20.1 °F - 15.8 °F 83% 30.11 in 4.0 mi Calm Calm - N/A   Overcast
10:35 AM 20.1 °F - 16.5 °F 86% 30.12 in 0.2 mi Calm Calm - N/A   Overcast
10:54 AM 20.1 °F - 16.9 °F 87% 30.12 in 2.5 mi Calm Calm - N/A   Overcast
11:15 AM 20.3 °F - 17.1 °F 87% 30.12 in 1.2 mi Calm Calm - N/A   Overcast
11:34 AM 20.7 °F 15.8 °F 17.2 °F 87% 30.11 in 1.8 mi South 3.5 mph - N/A   Overcast
11:55 AM 21.0 °F 16.2 °F 17.4 °F 86% 30.09 in 3.0 mi SSE 3.5 mph - N/A   Overcast
12:15 PM 21.2 °F - 17.2 °F 85% 30.08 in 5.0 mi Calm Calm - N/A   Overcast
12:34 PM 21.2 °F - 16.7 °F 83% 30.06 in 7.0 mi Calm Calm - N/A   Overcast
12:55 PM 21.6 °F - 16.5 °F 81% 30.05 in 10.0 mi Calm Calm - N/A   Overcast
1:15 PM 21.9 °F - 16.5 °F 80% 30.04 in 10.0 mi Calm Calm - N/A   Overcast
1:34 PM 22.3 °F 17.6 °F 16.7 °F 79% 30.03 in 10.0 mi SSE 3.5 mph - N/A   Overcast
1:55 PM 23.4 °F 17.4 °F 16.2 °F 74% 30.02 in 10.0 mi SSW 4.6 mph - N/A   Overcast
2:15 PM 23.9 °F 16.8 °F 15.6 °F 71% 30.02 in 10.0 mi SW 5.8 mph - N/A   Overcast
2:35 PM 23.9 °F 15.8 °F 14.0 °F 66% 30.02 in 10.0 mi WSW 6.9 mph - N/A   Overcast
3:15 PM 23.5 °F 15.4 °F 13.1 °F 64% 30.02 in 10.0 mi SW 6.9 mph - N/A   Overcast
3:35 PM 23.7 °F 16.6 °F 13.3 °F 64% 30.02 in 10.0 mi WSW 5.8 mph - N/A   Overcast
3:55 PM 23.5 °F 13.0 °F 13.6 °F 66% 30.03 in 10.0 mi WSW 10.4 mph 16.1 mph N/A   Overcast
4:14 PM 23.5 °F 19.1 °F 13.3 °F 65% 30.03 in 10.0 mi WSW 3.5 mph - N/A   Overcast
4:35 PM 23.4 °F 16.2 °F 13.5 °F 66% 30.03 in 10.0 mi WSW 5.8 mph - N/A   Overcast
5:14 PM 23.0 °F 15.8 °F 14.7 °F 71% 30.03 in 10.0 mi WSW 5.8 mph - N/A Snow Light Snow
5:35 PM 23.0 °F 14.7 °F 12.9 °F 65% 30.03 in 10.0 mi SW 6.9 mph - N/A   Overcast
5:54 PM 22.8 °F 14.5 °F 13.1 °F 66% 30.03 in 10.0 mi WSW 6.9 mph - N/A Snow Light Snow
6:15 PM 22.5 °F 13.2 °F 14.0 °F 70% 30.02 in 10.0 mi SSW 8.1 mph - N/A Snow Light Snow
6:35 PM 22.1 °F 14.7 °F 13.1 °F 68% 30.02 in 10.0 mi WSW 5.8 mph - N/A   Overcast
6:54 PM 21.9 °F 15.7 °F 13.6 °F 70% 30.02 in 10.0 mi SW 4.6 mph - N/A   Overcast
7:15 PM 21.9 °F 13.4 °F 14.0 °F 72% 30.02 in 10.0 mi WSW 6.9 mph 16.1 mph N/A   Overcast
7:35 PM 21.2 °F 10.9 °F 13.1 °F 71% 30.03 in 10.0 mi SW 9.2 mph - N/A   Overcast
7:55 PM 21.0 °F 8.6 °F 12.4 °F 69% 30.02 in 10.0 mi SW 12.7 mph 20.7 mph N/A   Overcast
8:15 PM 21.2 °F 12.6 °F 13.1 °F 71% 30.02 in 10.0 mi SW 6.9 mph - N/A   Overcast
8:35 PM 21.2 °F 11.7 °F 13.6 °F 73% 30.02 in 10.0 mi SSW 8.1 mph - N/A   Overcast
8:55 PM 21.7 °F 13.2 °F 13.8 °F 72% 30.01 in 10.0 mi SW 6.9 mph - N/A   Overcast
9:15 PM 21.9 °F 12.5 °F 14.0 °F 72% 30.01 in 10.0 mi SW 8.1 mph - N/A   Overcast
9:35 PM 22.1 °F 12.8 °F 14.0 °F 71% 30.01 in 10.0 mi SW 8.1 mph 18.4 mph N/A   Overcast
9:55 PM 22.1 °F 12.8 °F 13.6 °F 70% 30.01 in 10.0 mi SW 8.1 mph - N/A   Overcast
10:15 PM 22.1 °F 13.7 °F 13.8 °F 70% 30.01 in 10.0 mi SW 6.9 mph - N/A   Overcast
10:35 PM 22.1 °F 15.9 °F 14.0 °F 71% 30.01 in 10.0 mi SW 4.6 mph - N/A   Overcast
10:54 PM 22.1 °F 12.8 °F 14.4 °F 72% 30.01 in 10.0 mi SW 8.1 mph - N/A   Overcast
11:14 PM 22.3 °F 13.9 °F 14.5 °F 72% 30.00 in 10.0 mi WSW 6.9 mph - N/A   Overcast
11:35 PM 22.5 °F 15.1 °F 14.5 °F 72% 30.00 in 10.0 mi SW 5.8 mph - N/A   Overcast
11:54 PM 22.5 °F 15.1 °F 14.5 °F 72% 29.99 in 10.0 mi SW 5.8 mph - N/A   Overcast